Data No,UTC Date,UTC Time,Latitude,Longitude,Course(deg),Temp(degC),Sal(psu)
549,2022/11/14,9:08,42-36.78N,141-36.91E,211,12.418,32.8895
550,2022/11/14,9:09,42-36.53N,141-36.80E,184,12.467,32.9765
551,2022/11/14,9:10,42-36.27N,141-36.95E,148,12.436,33.1146
552,2022/11/14,9:11,42-36.07N,141-37.21E,130,12.495,33.0991
553,2022/11/14,9:12,42-35.89N,141-37.55E,127,12.609,33.0904
554,2022/11/14,9:13,42-35.69N,141-37.89E,127,12.667,33.2505
555,2022/11/14,9:14,42-35.50N,141-38.23E,127,12.707,33.3415
556,2022/11/14,9:15,42-35.29N,141-38.58E,128,12.761,33.3659
557,2022/11/14,9:16,42-35.09N,141-38.93E,128,12.801,33.4068
558,2022/11/14,9:17,42-34.87N,141-39.28E,129,12.805,33.4304
559,2022/11/14,9:18,42-34.66N,141-39.64E,129,12.823,33.4447
560,2022/11/14,9:19,42-34.45N,141-39.99E,129,12.666,33.448
561,2022/11/14,9:20,42-34.23N,141-40.35E,129,12.688,33.4412
562,2022/11/14,9:21,42-34.00N,141-40.72E,129,12.753,33.3731
563,2022/11/14,9:22,42-33.79N,141-41.07E,129,12.881,33.3665
564,2022/11/14,9:23,42-33.56N,141-41.44E,129,13.097,33.4133
565,2022/11/14,9:24,42-33.35N,141-41.80E,129,13.324,33.5227
566,2022/11/14,9:25,42-33.12N,141-42.17E,129,13.455,33.6
567,2022/11/14,9:26,42-32.89N,141-42.54E,129,13.497,33.6561
568,2022/11/14,9:27,42-32.66N,141-42.91E,129,13.51,33.7023
569,2022/11/14,9:28,42-32.43N,141-43.30E,129,13.521,33.7031
570,2022/11/14,9:29,42-32.20N,141-43.66E,129,13.516,33.7181
571,2022/11/14,9:30,42-31.96N,141-44.05E,129,13.507,33.7224
572,2022/11/14,9:31,42-31.73N,141-44.42E,130,13.359,33.7255
573,2022/11/14,9:32,42-31.49N,141-44.81E,129,13.333,33.7217
574,2022/11/14,9:33,42-31.25N,141-45.19E,130,13.451,33.693
575,2022/11/14,9:34,42-31.01N,141-45.59E,130,13.48,33.709
576,2022/11/14,9:35,42-30.76N,141-45.98E,130,13.486,33.7262
577,2022/11/14,9:36,42-30.52N,141-46.36E,130,13.482,33.7313
578,2022/11/14,9:37,42-30.27N,141-46.76E,130,13.479,33.7401
579,2022/11/14,9:38,42-30.04N,141-47.14E,130,13.478,33.7387
580,2022/11/14,9:39,42-29.79N,141-47.53E,130,13.468,33.7402
581,2022/11/14,9:40,42-29.54N,141-47.92E,130,13.456,33.7414
582,2022/11/14,9:41,42-29.30N,141-48.30E,130,13.465,33.741
583,2022/11/14,9:42,42-29.05N,141-48.71E,130,13.441,33.7416
584,2022/11/14,9:43,42-28.81N,141-49.07E,130,13.413,33.7406
585,2022/11/14,9:44,42-28.56N,141-49.47E,130,13.382,33.7369
586,2022/11/14,9:45,42-28.29N,141-49.89E,131,13.344,33.7305
587,2022/11/14,9:46,42-28.03N,141-50.28E,131,12.877,33.7245
588,2022/11/14,9:47,42-27.78N,141-50.68E,131,12.671,33.6772
589,2022/11/14,9:48,42-27.57N,141-50.99E,131,12.616,33.5241
590,2022/11/14,9:49,42-27.32N,141-51.37E,131,12.742,33.4513
591,2022/11/14,9:50,42-27.07N,141-51.75E,131,12.888,33.4631
592,2022/11/14,9:51,42-26.83N,141-52.13E,130,13.018,33.5298
593,2022/11/14,9:52,42-26.58N,141-52.52E,131,13.094,33.5829
594,2022/11/14,9:53,42-26.34N,141-52.89E,131,13.137,33.6513
595,2022/11/14,9:54,42-26.09N,141-53.27E,131,13.146,33.6659
596,2022/11/14,9:55,42-25.83N,141-53.66E,131,13.147,33.678
597,2022/11/14,9:56,42-25.58N,141-54.05E,131,13.156,33.6783
598,2022/11/14,9:57,42-25.33N,141-54.43E,131,13.189,33.6816
599,2022/11/14,9:58,42-25.09N,141-54.81E,131,13.212,33.6856
600,2022/11/14,9:59,42-24.84N,141-55.19E,131,13.202,33.6879
601,2022/11/14,10:00,42-24.58N,141-55.58E,131,13.186,33.6881
602,2022/11/14,10:01,42-24.33N,141-55.97E,131,13.208,33.6832
603,2022/11/14,10:02,42-24.08N,141-56.34E,131,13.195,33.6777
604,2022/11/14,10:03,42-23.84N,141-56.72E,130,13.166,33.6768
605,2022/11/14,10:04,42-23.59N,141-57.10E,131,13.103,33.672
606,2022/11/14,10:05,42-23.34N,141-57.49E,131,13.027,33.6671
607,2022/11/14,10:06,42-23.09N,141-57.88E,130,12.969,33.6557
608,2022/11/14,10:07,42-22.84N,141-58.27E,130,12.935,33.643
609,2022/11/14,10:08,42-22.60N,141-58.63E,129,13.32,33.6375
610,2022/11/14,10:09,42-22.36N,141-59.02E,130,13.424,33.6657
611,2022/11/14,10:10,42-22.11N,141-59.40E,130,13.413,33.7322
612,2022/11/14,10:11,42-21.87N,141-59.78E,130,13.281,33.7268
613,2022/11/14,10:12,42-21.63N,142-00.17E,130,13.19,33.7082
614,2022/11/14,10:13,42-21.39N,142-00.54E,130,13.094,33.6762
615,2022/11/14,10:14,42-21.15N,142-00.92E,130,13.032,33.6563
616,2022/11/14,10:15,42-20.90N,142-01.32E,130,12.989,33.6452
617,2022/11/14,10:16,42-20.66N,142-01.69E,130,12.977,33.6386
618,2022/11/14,10:17,42-20.41N,142-02.07E,130,12.969,33.6364
619,2022/11/14,10:18,42-20.17N,142-02.45E,131,12.961,33.6355
620,2022/11/14,10:19,42-19.93N,142-02.82E,131,12.94,33.6361
621,2022/11/14,10:20,42-19.67N,142-03.22E,130,12.914,33.636
622,2022/11/14,10:21,42-19.44N,142-03.58E,130,12.894,33.6363
623,2022/11/14,10:22,42-19.19N,142-03.96E,131,12.901,33.6349
624,2022/11/14,10:23,42-18.95N,142-04.33E,131,12.931,33.637
625,2022/11/14,10:24,42-18.71N,142-04.70E,131,12.909,33.6388
626,2022/11/14,10:25,42-18.45N,142-05.09E,131,12.97,33.6427
627,2022/11/14,10:26,42-18.22N,142-05.45E,131,13.036,33.6415
628,2022/11/14,10:27,42-17.97N,142-05.83E,131,13.037,33.6572
629,2022/11/14,10:28,42-17.73N,142-06.20E,131,13.176,33.6555
630,2022/11/14,10:29,42-17.48N,142-06.58E,131,13.184,33.6708
631,2022/11/14,10:30,42-17.23N,142-06.96E,131,13.23,33.6826
632,2022/11/14,10:31,42-17.01N,142-07.36E,124,13.237,33.6874
633,2022/11/14,10:32,42-16.83N,142-07.77E,120,13.27,33.6934
634,2022/11/14,10:33,42-16.64N,142-08.20E,119,13.261,33.6965
635,2022/11/14,10:34,42-16.46N,142-08.63E,119,13.269,33.696
636,2022/11/14,10:35,42-16.27N,142-09.07E,119,13.296,33.6954
637,2022/11/14,10:36,42-16.10N,142-09.49E,120,13.303,33.6992
638,2022/11/14,10:37,42-15.91N,142-09.92E,119,13.307,33.7028
639,2022/11/14,10:38,42-15.72N,142-10.36E,120,13.302,33.705
640,2022/11/14,10:39,42-15.55N,142-10.78E,120,13.292,33.7086
641,2022/11/14,10:40,42-15.36N,142-11.22E,119,13.281,33.7078
642,2022/11/14,10:41,42-15.18N,142-11.65E,119,13.271,33.7086
643,2022/11/14,10:42,42-14.99N,142-12.08E,119,13.258,33.7089
644,2022/11/14,10:43,42-14.80N,142-12.53E,119,13.29,33.7091
645,2022/11/14,10:44,42-14.62N,142-12.95E,119,13.34,33.7121
646,2022/11/14,10:45,42-14.44N,142-13.39E,119,13.379,33.7164
647,2022/11/14,10:46,42-14.26N,142-13.82E,119,13.443,33.7197
648,2022/11/14,10:47,42-14.07N,142-14.25E,119,13.487,33.7231
649,2022/11/14,10:48,42-13.89N,142-14.69E,119,13.536,33.7248
650,2022/11/14,10:49,42-13.71N,142-15.12E,119,13.585,33.7254
651,2022/11/14,10:50,42-13.52N,142-15.56E,119,13.619,33.7299
652,2022/11/14,10:51,42-13.34N,142-16.00E,119,13.635,33.731
653,2022/11/14,10:52,42-13.16N,142-16.42E,119,13.648,33.7333
654,2022/11/14,10:53,42-12.97N,142-16.86E,119,13.66,33.7327
655,2022/11/14,10:54,42-12.78N,142-17.29E,119,13.662,33.7321
656,2022/11/14,10:55,42-12.60N,142-17.72E,119,13.666,33.7312
657,2022/11/14,10:56,42-12.42N,142-18.16E,119,13.666,33.7304
658,2022/11/14,10:57,42-12.24N,142-18.57E,119,13.664,33.7298
659,2022/11/14,10:58,42-12.05N,142-19.01E,119,13.663,33.7286
660,2022/11/14,10:59,42-11.86N,142-19.45E,119,13.665,33.7264
661,2022/11/14,11:00,42-11.68N,142-19.88E,119,13.666,33.7248
662,2022/11/14,11:01,42-11.50N,142-20.30E,119,13.67,33.7229
663,2022/11/14,11:02,42-11.31N,142-20.73E,122,13.671,33.7233
664,2022/11/14,11:03,42-11.10N,142-21.15E,123,13.678,33.7217
665,2022/11/14,11:04,42-10.90N,142-21.55E,124,13.681,33.7203
666,2022/11/14,11:05,42-10.69N,142-21.97E,124,13.689,33.7176
667,2022/11/14,11:06,42-10.49N,142-22.37E,123,13.695,33.716
668,2022/11/14,11:07,42-10.29N,142-22.78E,123,13.699,33.7129
669,2022/11/14,11:08,42-10.08N,142-23.21E,123,13.706,33.7113
670,2022/11/14,11:09,42-09.88N,142-23.62E,123,13.712,33.709
671,2022/11/14,11:10,42-09.68N,142-24.02E,123,13.714,33.7057
672,2022/11/14,11:11,42-09.48N,142-24.45E,120,13.726,33.7045
673,2022/11/14,11:12,42-09.31N,142-24.86E,119,13.738,33.7043
674,2022/11/14,11:13,42-09.13N,142-25.30E,118,13.734,33.7052
675,2022/11/14,11:14,42-08.95N,142-25.72E,118,13.713,33.7042
676,2022/11/14,11:15,42-08.77N,142-26.16E,119,13.694,33.7033
677,2022/11/14,11:16,42-08.59N,142-26.59E,118,13.695,33.701
678,2022/11/14,11:17,42-08.42N,142-27.00E,119,13.686,33.6975
679,2022/11/14,11:18,42-08.24N,142-27.43E,118,13.661,33.6948
680,2022/11/14,11:19,42-08.07N,142-27.85E,118,13.642,33.692
681,2022/11/14,11:20,42-07.89N,142-28.28E,118,13.605,33.6916
682,2022/11/14,11:21,42-07.71N,142-28.72E,118,13.489,33.6878
683,2022/11/14,11:22,42-07.55N,142-29.13E,118,13.435,33.6814
684,2022/11/14,11:23,42-07.37N,142-29.56E,118,13.496,33.6666
685,2022/11/14,11:24,42-07.20N,142-29.98E,118,13.464,33.6708
686,2022/11/14,11:25,42-07.01N,142-30.41E,119,13.393,33.6705
687,2022/11/14,11:26,42-06.84N,142-30.83E,118,13.334,33.6638
688,2022/11/14,11:27,42-06.66N,142-31.26E,118,13.265,33.6443
689,2022/11/14,11:28,42-06.50N,142-31.70E,115,13.221,33.6364
690,2022/11/14,11:29,42-06.35N,142-32.14E,114,13.193,33.6278
691,2022/11/14,11:30,42-06.20N,142-32.57E,115,13.179,33.6277
692,2022/11/14,11:31,42-06.05N,142-33.00E,114,13.167,33.6225
693,2022/11/14,11:32,42-05.90N,142-33.44E,115,13.153,33.6216
694,2022/11/14,11:33,42-05.73N,142-33.89E,115,13.145,33.6205
695,2022/11/14,11:34,42-05.59N,142-34.31E,115,13.148,33.6172
696,2022/11/14,11:35,42-05.43N,142-34.76E,115,13.14,33.6176
697,2022/11/14,11:36,42-05.28N,142-35.19E,115,13.126,33.6165
698,2022/11/14,11:37,42-05.12N,142-35.63E,114,13.117,33.618
699,2022/11/14,11:38,42-04.96N,142-36.09E,114,13.079,33.618
700,2022/11/14,11:39,42-04.82N,142-36.50E,115,13.034,33.6126
701,2022/11/14,11:40,42-04.67N,142-36.95E,114,13.014,33.6068
702,2022/11/14,11:41,42-04.52N,142-37.38E,114,13.056,33.6014
703,2022/11/14,11:42,42-04.36N,142-37.82E,114,12.984,33.604
704,2022/11/14,11:43,42-04.21N,142-38.26E,115,12.85,33.5999
705,2022/11/14,11:44,42-04.03N,142-38.75E,114,12.619,33.5812
706,2022/11/14,11:45,42-03.88N,142-39.20E,114,12.486,33.5493
707,2022/11/14,11:46,42-03.73N,142-39.62E,115,12.454,33.5094
708,2022/11/14,11:47,42-03.57N,142-40.06E,115,12.432,33.4942
709,2022/11/14,11:48,42-03.44N,142-40.45E,114,12.392,33.4871
710,2022/11/14,11:49,42-03.29N,142-40.87E,114,12.349,33.4826
711,2022/11/14,11:50,42-03.11N,142-41.38E,115,12.277,33.4746
712,2022/11/14,11:51,42-02.95N,142-41.82E,115,12.142,33.4692
713,2022/11/14,11:52,42-02.83N,142-42.18E,115,11.958,33.4567
714,2022/11/14,11:53,42-02.66N,142-42.64E,115,11.865,33.4272
715,2022/11/14,11:54,42-02.50N,142-43.11E,115,11.816,33.4091
716,2022/11/14,11:55,42-02.35N,142-43.54E,115,11.799,33.4025
717,2022/11/14,11:56,42-02.21N,142-43.93E,115,11.812,33.3968
718,2022/11/14,11:57,42-02.03N,142-44.42E,115,11.839,33.3985
719,2022/11/14,11:58,42-01.87N,142-44.86E,115,11.855,33.3987
720,2022/11/14,11:59,42-01.72N,142-45.28E,115,11.925,33.3985
721,2022/11/14,12:00,42-01.58N,142-45.67E,115,11.957,33.4094
722,2022/11/14,12:01,42-01.43N,142-46.11E,115,12.034,33.4194
723,2022/11/14,12:02,42-01.25N,142-46.59E,115,12.045,33.4291
724,2022/11/14,12:03,42-01.10N,142-47.03E,115,12.078,33.4381
725,2022/11/14,12:04,42-00.94N,142-47.47E,114,12.104,33.437
726,2022/11/14,12:05,42-00.81N,142-47.84E,115,12.117,33.4383
727,2022/11/14,12:06,42-00.66N,142-48.26E,115,12.131,33.447
728,2022/11/14,12:07,42-00.51N,142-48.70E,115,12.122,33.4515
729,2022/11/14,12:08,42-00.35N,142-49.14E,115,12.149,33.4518
730,2022/11/14,12:09,42-00.18N,142-49.58E,115,12.214,33.4542
731,2022/11/14,12:10,42-00.03N,142-50.05E,114,12.233,33.4706
732,2022/11/14,12:11,41-59.88N,142-50.50E,114,12.375,33.4763
733,2022/11/14,12:12,41-59.72N,142-50.95E,114,12.407,33.4953
734,2022/11/14,12:13,41-59.57N,142-51.39E,113,12.388,33.5118
735,2022/11/14,12:14,41-59.44N,142-51.83E,112,12.46,33.515
736,2022/11/14,12:15,41-59.29N,142-52.30E,112,12.491,33.5162
737,2022/11/14,12:16,41-59.16N,142-52.73E,112,12.532,33.5309
738,2022/11/14,12:17,41-59.03N,142-53.14E,111,12.613,33.5309
739,2022/11/14,12:18,41-58.89N,142-53.60E,111,12.676,33.5428
740,2022/11/14,12:19,41-58.74N,142-54.04E,111,12.674,33.5564
741,2022/11/14,12:20,41-58.60N,142-54.56E,111,12.665,33.5596
742,2022/11/14,12:21,41-58.47N,142-54.98E,111,12.613,33.5567
743,2022/11/14,12:22,41-58.33N,142-55.44E,111,12.581,33.5481
744,2022/11/14,12:23,41-58.20N,142-55.89E,111,12.478,33.5354
745,2022/11/14,12:24,41-58.06N,142-56.35E,111,12.478,33.5223
746,2022/11/14,12:25,41-57.94N,142-56.75E,111,12.48,33.5021
747,2022/11/14,12:26,41-57.81N,142-57.20E,111,12.229,33.5069
748,2022/11/14,12:27,41-57.67N,142-57.65E,111,12.225,33.4861
749,2022/11/14,12:28,41-57.53N,142-58.16E,111,12.306,33.446
750,2022/11/14,12:29,41-57.40N,142-58.58E,111,12.359,33.4449
751,2022/11/14,12:30,41-57.26N,142-59.04E,111,12.386,33.4493
752,2022/11/14,12:31,41-57.13N,142-59.48E,111,12.413,33.4482
753,2022/11/14,12:32,41-56.92N,142-59.94E,111,12.429,33.4478
754,2022/11/14,12:33,41-56.77N,143-00.40E,111,12.419,33.4467
755,2022/11/14,12:34,41-56.62N,143-00.87E,111,12.426,33.4471
756,2022/11/14,12:35,41-56.58N,143-01.32E,111,12.448,33.4462
757,2022/11/14,12:36,41-56.35N,143-01.77E,111,12.525,33.4488
758,2022/11/14,12:37,41-56.22N,143-02.22E,111,12.597,33.4543
759,2022/11/14,12:38,41-56.08N,143-02.68E,111,12.692,33.4613
760,2022/11/14,12:39,41-55.94N,143-03.15E,111,12.801,33.4712
761,2022/11/14,12:40,41-55.81N,143-03.60E,111,12.879,33.4828
762,2022/11/14,12:41,41-55.68N,143-04.06E,111,12.913,33.4932
763,2022/11/14,12:42,41-55.54N,143-04.52E,111,12.912,33.4968
764,2022/11/14,12:43,41-55.46N,143-04.97E,112,12.905,33.4973
765,2022/11/14,12:44,41-55.33N,143-05.42E,112,12.903,33.4957
766,2022/11/14,12:45,41-55.19N,143-05.89E,112,12.909,33.495
767,2022/11/14,12:46,41-55.05N,143-06.34E,112,12.903,33.4954
768,2022/11/14,12:47,41-54.90N,143-06.80E,112,12.899,33.4974
769,2022/11/14,12:48,41-54.75N,143-07.27E,112,12.895,33.497
770,2022/11/14,12:49,41-54.61N,143-07.72E,112,12.882,33.499
771,2022/11/14,12:50,41-54.46N,143-08.18E,113,12.848,33.5036
772,2022/11/14,12:51,41-54.31N,143-08.65E,113,12.803,33.5052
773,2022/11/14,12:52,41-54.17N,143-09.09E,111,12.763,33.5019
774,2022/11/14,12:53,41-54.03N,143-09.62E,109,12.619,33.499
775,2022/11/14,12:54,41-53.90N,143-10.09E,109,12.524,33.4889
776,2022/11/14,12:55,41-53.80N,143-10.54E,105,12.441,33.474
777,2022/11/14,12:56,41-53.72N,143-11.02E,103,12.47,33.4685
778,2022/11/14,12:57,41-53.66N,143-11.41E,100,12.453,33.4738
779,2022/11/14,12:58,41-53.61N,143-11.90E,99,12.412,33.4756
780,2022/11/14,12:59,41-53.55N,143-12.38E,99,12.411,33.4787
781,2022/11/14,13:00,41-53.49N,143-12.86E,99,12.455,33.4745
782,2022/11/14,13:01,41-53.44N,143-13.35E,96,12.491,33.4818
783,2022/11/14,13:02,41-53.41N,143-13.82E,95,12.456,33.4897
784,2022/11/14,13:03,41-53.39N,143-14.31E,92,12.374,33.4937
785,2022/11/14,13:04,41-53.38N,143-14.79E,90,12.325,33.4884
786,2022/11/14,13:05,41-53.38N,143-15.28E,90,12.326,33.4737
787,2022/11/14,13:06,41-53.37N,143-15.77E,90,12.274,33.4643
788,2022/11/14,13:07,41-53.37N,143-16.25E,90,12.231,33.4563
789,2022/11/14,13:08,41-53.37N,143-16.76E,88,12.21,33.448
790,2022/11/14,13:09,41-53.39N,143-17.23E,86,12.182,33.4429
791,2022/11/14,13:10,41-53.44N,143-17.72E,79,12.077,33.442
792,2022/11/14,13:11,41-53.54N,143-18.17E,70,12.03,33.4412
793,2022/11/14,13:12,41-53.69N,143-18.59E,61,12.029,33.4369
794,2022/11/14,13:13,41-53.89N,143-18.98E,53,12.04,33.4285
795,2022/11/14,13:14,41-54.12N,143-19.31E,44,12.028,33.4205
796,2022/11/14,13:15,41-54.38N,143-19.62E,39,12.014,33.4139
797,2022/11/14,13:16,41-54.66N,143-19.92E,38,11.97,33.4077
798,2022/11/14,13:17,41-54.93N,143-20.21E,38,11.908,33.4031
799,2022/11/14,13:18,41-55.21N,143-20.51E,38,11.873,33.3961
800,2022/11/14,13:19,41-55.47N,143-20.80E,39,11.781,33.3842
801,2022/11/14,13:20,41-55.75N,143-21.10E,39,11.754,33.3658
802,2022/11/14,13:21,41-56.02N,143-21.41E,39,11.743,33.3568
803,2022/11/14,13:22,41-56.29N,143-21.70E,38,11.736,33.3524
804,2022/11/14,13:23,41-56.58N,143-21.98E,34,11.737,33.3495
805,2022/11/14,13:24,41-56.88N,143-22.22E,30,11.74,33.3489
806,2022/11/14,13:25,41-57.18N,143-22.44E,27,11.737,33.3471
807,2022/11/14,13:26,41-57.49N,143-22.65E,24,11.738,33.3445
808,2022/11/14,13:27,41-57.81N,143-22.84E,24,11.736,33.3427
809,2022/11/14,13:28,41-58.12N,143-23.04E,25,11.744,33.3414
810,2022/11/14,13:29,41-58.44N,143-23.24E,24,11.751,33.3422
811,2022/11/14,13:30,41-58.75N,143-23.42E,24,11.756,33.3436
812,2022/11/14,13:31,41-59.07N,143-23.63E,26,11.764,33.3447
813,2022/11/14,13:32,41-59.36N,143-23.85E,29,11.761,33.3453
814,2022/11/14,13:33,41-59.67N,143-24.09E,30,11.766,33.3452
815,2022/11/14,13:34,41-59.97N,143-24.32E,29,11.763,33.3462
816,2022/11/14,13:35,42-00.27N,143-24.55E,29,11.757,33.3488
817,2022/11/14,13:36,42-00.57N,143-24.78E,30,11.751,33.3482
818,2022/11/14,13:37,42-00.87N,143-25.01E,30,11.743,33.3489
819,2022/11/14,13:38,42-01.18N,143-25.25E,29,11.738,33.349
820,2022/11/14,13:39,42-01.47N,143-25.47E,29,11.728,33.3506
821,2022/11/14,13:40,42-01.77N,143-25.71E,29,11.71,33.3516
822,2022/11/14,13:41,42-02.08N,143-25.94E,29,11.662,33.3518
823,2022/11/14,13:42,42-02.37N,143-26.16E,29,11.629,33.3499
824,2022/11/14,13:43,42-02.69N,143-26.40E,29,11.622,33.3443
825,2022/11/14,13:44,42-02.98N,143-26.62E,29,11.624,33.3415
826,2022/11/14,13:45,42-03.28N,143-26.85E,29,11.624,33.3424
827,2022/11/14,13:46,42-03.59N,143-27.08E,29,11.626,33.3395
828,2022/11/14,13:47,42-03.88N,143-27.30E,29,11.636,33.3388
829,2022/11/14,13:48,42-04.19N,143-27.53E,29,11.648,33.3401
830,2022/11/14,13:49,42-04.50N,143-27.76E,28,11.658,33.3422
831,2022/11/14,13:50,42-04.79N,143-27.98E,29,11.666,33.3452
832,2022/11/14,13:51,42-05.10N,143-28.21E,28,11.667,33.3474
833,2022/11/14,13:52,42-05.40N,143-28.43E,28,11.665,33.3487
834,2022/11/14,13:53,42-05.71N,143-28.66E,28,11.667,33.3508
835,2022/11/14,13:54,42-06.02N,143-28.89E,28,11.665,33.3486
836,2022/11/14,13:55,42-06.31N,143-29.10E,28,11.669,33.3468
837,2022/11/14,13:56,42-06.62N,143-29.33E,28,11.669,33.3444
838,2022/11/14,13:57,42-06.92N,143-29.56E,28,11.669,33.3434
839,2022/11/14,13:58,42-07.23N,143-29.78E,28,11.674,33.3405
840,2022/11/14,13:59,42-07.53N,143-30.01E,28,11.677,33.3394
841,2022/11/14,14:00,42-07.84N,143-30.24E,28,11.678,33.34
842,2022/11/14,14:01,42-08.14N,143-30.46E,28,11.677,33.337
843,2022/11/14,14:02,42-08.44N,143-30.68E,28,11.671,33.3368
844,2022/11/14,14:03,42-08.77N,143-30.92E,28,11.661,33.3366
845,2022/11/14,14:04,42-09.05N,143-31.13E,28,11.649,33.3322
846,2022/11/14,14:05,42-09.36N,143-31.36E,28,11.643,33.3265
847,2022/11/14,14:06,42-09.67N,143-31.59E,28,11.642,33.3178
848,2022/11/14,14:07,42-09.97N,143-31.81E,28,11.65,33.3136
849,2022/11/14,14:08,42-10.28N,143-32.04E,28,11.648,33.3123
850,2022/11/14,14:09,42-10.58N,143-32.26E,28,11.652,33.3109
851,2022/11/14,14:10,42-10.89N,143-32.49E,28,11.647,33.3124
852,2022/11/14,14:11,42-11.21N,143-32.73E,28,11.648,33.3124
853,2022/11/14,14:12,42-11.49N,143-32.94E,28,11.645,33.311
854,2022/11/14,14:13,42-11.79N,143-33.18E,31,11.64,33.3115
855,2022/11/14,14:14,42-12.09N,143-33.43E,31,11.627,33.3094
856,2022/11/14,14:15,42-12.38N,143-33.67E,32,11.632,33.2986
857,2022/11/14,14:16,42-12.68N,143-33.93E,31,11.631,33.2894
858,2022/11/14,14:17,42-12.97N,143-34.16E,31,11.616,33.2843
859,2022/11/14,14:18,42-13.27N,143-34.41E,31,11.596,33.2786
860,2022/11/14,14:19,42-13.56N,143-34.66E,31,11.582,33.2765
861,2022/11/14,14:20,42-13.85N,143-34.90E,31,11.576,33.2745
862,2022/11/14,14:21,42-14.15N,143-35.15E,31,11.574,33.2723
863,2022/11/14,14:22,42-14.44N,143-35.39E,31,11.567,33.2694
864,2022/11/14,14:23,42-14.74N,143-35.64E,31,11.559,33.2658
865,2022/11/14,14:24,42-15.05N,143-35.90E,31,11.558,33.264
866,2022/11/14,14:25,42-15.33N,143-36.13E,31,11.552,33.2621
867,2022/11/14,14:26,42-15.63N,143-36.38E,31,11.543,33.2626
868,2022/11/14,14:27,42-15.93N,143-36.63E,31,11.533,33.2617
869,2022/11/14,14:28,42-16.21N,143-36.86E,31,11.524,33.2617
870,2022/11/14,14:29,42-16.51N,143-37.11E,31,11.497,33.2636
871,2022/11/14,14:30,42-16.80N,143-37.35E,30,11.489,33.2658
872,2022/11/14,14:31,42-17.10N,143-37.59E,31,11.474,33.2723
873,2022/11/14,14:32,42-17.40N,143-37.84E,30,11.452,33.2759
874,2022/11/14,14:33,42-17.69N,143-38.07E,31,11.425,33.2829
875,2022/11/14,14:34,42-17.98N,143-38.31E,31,11.408,33.2895
876,2022/11/14,14:35,42-18.27N,143-38.55E,30,11.389,33.2935
877,2022/11/14,14:36,42-18.57N,143-38.79E,31,11.385,33.2987
878,2022/11/14,14:37,42-18.87N,143-39.03E,31,11.392,33.3045
879,2022/11/14,14:38,42-19.15N,143-39.27E,31,11.391,33.3092
880,2022/11/14,14:39,42-19.45N,143-39.52E,31,11.356,33.3091
881,2022/11/14,14:40,42-19.74N,143-39.75E,30,11.31,33.3078
882,2022/11/14,14:41,42-20.03N,143-39.98E,31,11.29,33.3138
883,2022/11/14,14:42,42-20.32N,143-40.22E,30,11.284,33.3237
884,2022/11/14,14:43,42-20.61N,143-40.46E,31,11.282,33.3269
885,2022/11/14,14:44,42-20.91N,143-40.70E,31,11.282,33.3303
886,2022/11/14,14:45,42-21.20N,143-40.93E,30,11.274,33.3317
887,2022/11/14,14:46,42-21.51N,143-41.18E,30,11.277,33.336
888,2022/11/14,14:47,42-21.79N,143-41.41E,30,11.294,33.3384
889,2022/11/14,14:48,42-22.10N,143-41.66E,31,11.303,33.3404
890,2022/11/14,14:49,42-22.38N,143-41.91E,31,11.308,33.3414
891,2022/11/14,14:50,42-22.67N,143-42.15E,32,11.313,33.3418
892,2022/11/14,14:51,42-22.96N,143-42.39E,32,11.324,33.3429
893,2022/11/14,14:52,42-23.25N,143-42.64E,31,11.333,33.3435
894,2022/11/14,14:53,42-23.54N,143-42.88E,32,11.341,33.3423
895,2022/11/14,14:54,42-23.84N,143-43.14E,32,11.351,33.3442
896,2022/11/14,14:55,42-24.17N,143-43.41E,32,11.361,33.3442
897,2022/11/14,14:56,42-24.47N,143-43.67E,32,11.365,33.344
898,2022/11/14,14:57,42-24.76N,143-43.91E,32,11.367,33.345
899,2022/11/14,14:58,42-25.01N,143-44.13E,32,11.371,33.3437
900,2022/11/14,14:59,42-25.31N,143-44.39E,32,11.378,33.3412
901,2022/11/14,15:00,42-25.60N,143-44.63E,32,11.393,33.3381
902,2022/11/14,15:01,42-25.89N,143-44.87E,31,11.4,33.3356
903,2022/11/14,15:02,42-26.20N,143-45.13E,31,11.408,33.3328
904,2022/11/14,15:03,42-26.48N,143-45.37E,32,11.414,33.3302
905,2022/11/14,15:04,42-26.78N,143-45.62E,32,11.424,33.3305
906,2022/11/14,15:05,42-27.07N,143-45.87E,31,11.432,33.3279
907,2022/11/14,15:06,42-27.36N,143-46.12E,31,11.437,33.3259
908,2022/11/14,15:07,42-27.66N,143-46.37E,32,11.445,33.3242
909,2022/11/14,15:08,42-27.95N,143-46.61E,31,11.449,33.3242
910,2022/11/14,15:09,42-28.25N,143-46.87E,32,11.455,33.3241
911,2022/11/14,15:10,42-28.55N,143-47.12E,32,11.464,33.326
912,2022/11/14,15:11,42-28.83N,143-47.36E,32,11.466,33.3254
913,2022/11/14,15:12,42-29.13N,143-47.62E,32,11.471,33.324
914,2022/11/14,15:13,42-29.42N,143-47.87E,32,11.468,33.3242
915,2022/11/14,15:14,42-29.72N,143-48.12E,32,11.476,33.3253
916,2022/11/14,15:15,42-30.02N,143-48.38E,32,11.478,33.3274
917,2022/11/14,15:16,42-30.31N,143-48.62E,31,11.48,33.329
918,2022/11/14,15:17,42-30.61N,143-48.87E,32,11.477,33.3291
919,2022/11/14,15:18,42-30.90N,143-49.13E,32,11.472,33.33
920,2022/11/14,15:19,42-31.20N,143-49.38E,31,11.467,33.3308
921,2022/11/14,15:20,42-31.50N,143-49.63E,31,11.466,33.3316
922,2022/11/14,15:21,42-31.79N,143-49.88E,32,11.472,33.3317
923,2022/11/14,15:22,42-32.09N,143-50.13E,31,11.477,33.3314
924,2022/11/14,15:23,42-32.40N,143-50.38E,32,11.478,33.3322
925,2022/11/14,15:24,42-32.70N,143-50.63E,31,11.483,33.3326
926,2022/11/14,15:25,42-32.99N,143-50.88E,31,11.489,33.3319
927,2022/11/14,15:26,42-33.29N,143-51.13E,31,11.493,33.331
928,2022/11/14,15:27,42-33.59N,143-51.38E,31,11.497,33.3317
929,2022/11/14,15:28,42-33.90N,143-51.63E,31,11.502,33.3313
930,2022/11/14,15:29,42-34.19N,143-51.88E,31,11.506,33.3309
931,2022/11/14,15:30,42-34.49N,143-52.13E,31,11.51,33.331
932,2022/11/14,15:31,42-34.79N,143-52.38E,31,11.514,33.3303
933,2022/11/14,15:32,42-35.09N,143-52.64E,31,11.518,33.3285
934,2022/11/14,15:33,42-35.39N,143-52.88E,31,11.526,33.3289
935,2022/11/14,15:34,42-35.70N,143-53.15E,31,11.527,33.3287
936,2022/11/14,15:35,42-35.98N,143-53.38E,31,11.532,33.3277
937,2022/11/14,15:36,42-36.30N,143-53.65E,31,11.537,33.3279
938,2022/11/14,15:37,42-36.60N,143-53.90E,31,11.54,33.3271